Tracking 18844 objects as of 21-Nov-2017
HD Live streaming from Space Station
objects crossing your sky now

FENGYUN 1C DEB

Track FENGYUN 1C DEB now!
10-day predictions


NORAD ID: 31547
Int'l Code: 1999-025BYN
Perigee: 820.7 km
Apogee: 915.9 km
Inclination: 99.0 °
Period: 102.2 minutes
Semi major axis: 7239 km
RCS: 0.0024 m2 (small)
Launch date: May 10, 1999
Source: People's Republic of China (PRC)
Launch site: Taiyaun Space Center, China (TSC)

Note: This is SATELLITE DEBRIS
aabbcc
Your satellite tracking list
Your tracking list is empty




NASA's NSSDC Master Catalog

Two Line Element Set (TLE):
1 31547U 99025BYN 17324.73891102  .00000723  00000-0  43150-3 0  9991
2 31547  99.0174 277.6633 0065765 269.3419  90.0215 14.09470656543279
Source of the keplerian elements: AFSPC